CAPE
994 920 1128 1290 1614 1539 1460 1410 1208 1518 1246 875 895 992 1268 1130 1124 744 245 159 437 428 199 111 112 123 71 36 88 156 269 296 318 371 368 499 580 601 552 528 529 575 1164
1306 1316 1095 1595 1667 1802 1745 1687 1374 1218 1196 1212 1153 1372 1360 996 1091 771 229 173 117 119 112 122 120 106 76 39 75 68 22 3 40 112 189 254 298 293 423 469 531 840 1104
1106 1248 1358 1698 1606 1460 1557 1624 1398 1246 1245 1020 1262 1068 1034 1070 1074 751 317 389 963 582 280 202 125 77 46 58 28 4 0 0 0 0 87 148 211 336 308 498 471 867 1001
1046 1319 1336 996 1329 1106 1470 1450 1224 1241 1353 956 769 1118 932 937 1172 927 493 362 655 629 335 171 70 35 4 3 5 0 0 1 3 0 0 139 309 302 375 527 576 637 874
657 1298 1492 1223 980 984 1250 1371 1147 1204 1189 955 826 907 1225 1178 1232 1020 752 573 455 329 124 45 4 0 0 0 0 0 0 1 29 0 17 55 157 452 460 655 475 793 801
727 988 1153 919 797 757 1171 1170 1136 1328 1211 960 1042 1368 1419 1122 1078 1174 960 732 363 251 250 117 17 0 0 0 0 0 0 0 0 12 41 60 21 423 460 413 311 543 692
600 375 416 493 621 768 1003 1380 1435 1375 1227 1101 1356 1332 1186 1079 1056 1124 815 607 577 478 210 151 112 28 0 0 0 0 0 0 0 0 0 0 11 250 590 369 260 287 330
315 58 35 26 27 361 443 555 872 878 981 1324 1282 1296 1322 1240 1084 1034 826 685 644 640 520 293 136 47 0 18 0 0 0 0 0 0 0 0 7 112 94 498 235 212 174
111 176 10 0 0 77 319 425 443 531 1045 1277 1140 1128 1062 956 934 907 754 711 655 646 453 550 428 255 70 8 19 0 0 0 0 0 0 0 0 2 105 99 344 485 367
76 87 58 40 26 19 47 4 137 436 663 979 991 1004 906 748 748 603 483 643 563 537 468 411 366 350 333 269 100 46 1 0 0 0 0 0 0 11 0 93 31 75 477
0 0 10 2 35 102 141 152 195 135 524 681 676 694 568 429 193 97 213 312 397 443 455 415 385 325 265 241 225 181 90 0 0 0 0 0 0 50 0 0 52 21 21
0 0 0 0 0 0 54 305 221 65 32 76 254 296 236 304 62 0 8 118 116 124 245 342 318 258 220 176 113 70 60 36 3 0 0 0 0 143 39 0 0 0 169
0 0 0 0 0 0 0 25 3 0 0 1 33 100 101 91 71 39 6 14 0 0 3 2 8 76 109 125 140 138 109 63 41 44 7 1 0 104 185 77 34 38 51
0 0 0 0 0 0 0 0 0 0 0 0 0 0 0 0 0 0 0 0 0 0 0 0 0 0 1 0 1 0 17 104 78 63 78 65 0 1 167 159 152 161 184
0 0 0 0 0 0 0 0 0 0 0 0 0 0 0 0 0 0 0 0 0 0 0 0 0 0 0 0 0 0 0 0 0 43 98 27 2 0 65 160 182 136 147
0 0 0 0 0 0 0 0 0 0 0 0 0 0 0 0 0 0 0 0 0 0 0 0 0 0 0 0 0 0 0 0 0 0 0 9 15 0 0 0 0 3 7
0 0 0 0 0 0 0 0 0 0 0 0 0 0 0 0 0 0 0 0 0 0 0 0 0 0 0 0 0 0 0 0 0 0 0 0 0 0 5 8 9 61 125
0 0 0 0 0 0 0 0 0 0 0 0 0 0 0 0 0 0 0 0 0 0 0 0 0 0 0 0 0 0 0 0 0 0 0 0 0 0 0 0 0 0 3
0 0 0 0 0 0 0 0 0 0 0 0 0 0 0 0 0 0 0 0 0 0 0 0 0 0 0 0 0 0 0 0 0 0 0 0 0 0 0 0 0 0 0
0 0 0 0 0 0 0 0 0 0 0 0 0 0 0 0 0 0 0 0 0 0 0 0 0 0 0 0 0 0 0 0 0 0 0 0 0 0 0 0 0 0 0
0 0 0 0 0 0 0 0 0 0 0 0 0 0 0 0 0 0 0 0 0 0 0 0 0 0 0 0 0 0 0 0 0 0 0 0 0 0 0 0 0 0 0
0 0 0 0 0 0 0 0 0 0 0 0 0 0 0 0 0 0 0 0 0 0 0 0 0 0 0 0 0 0 0 0 0 0 0 0 0 0 0 0 0 0 0
0 0 0 0 0 0 0 0 0 0 0 0 0 0 0 0 0 0 0 0 0 0 0 0 0 0 0 0 0 0 0 0 0 0 0 0 0 0 0 0 0 0 0
0 0 0 0 0 0 0 0 0 0 0 0 0 0 0 0 0 0 0 0 0 0 0 0 0 0 0 0 0 0 0 0 0 0 0 0 0 0 0 0 0 0 0
0 0 0 0 0 0 0 0 0 0 0 0 0 0 0 0 0 0 0 0 0 0 0 0 0 0 0 0 0 0 0 0 0 0 0 0 0 0 0 0 0 0 0
0 0 0 0 0 0 0 0 0 0 0 0 0 0 0 0 0 0 0 0 0 0 0 0 0 0 0 0 0 0 0 0 0 1 1 0 0 0 0 0 0 0 0
CIN
-80 -83 -40 -14 -1 -3 -3 -4 -6 0 0 -11 -9 -5 0 0 0 0 -55 -83 -4 -1 -23 -54 -47 -47 -72 -132 -74 -20 -5 -12 -12 -9 -10 -3 -3 -4 -9 -8 -8 -6 -1
-25 -12 -41 -1 0 0 0 0 -3 -2 -2 0 0 0 0 0 0 0 -56 -70 -100 -84 -77 -60 -57 -53 -61 -124 -76 -85 -159 -14 -146 -79 -40 -26 -12 -11 -12 -14 -5 -6 0
-31 -17 -9 -1 0 -2 -1 0 -1 -4 -1 -2 0 0 0 0 0 0 -34 -14 0 0 -6 -14 -52 -78 -121 -91 -137 -226 0 0 0 0 -114 -64 -33 -9 -17 -9 -6 -4 0
-36 -14 -8 -11 -6 -6 -2 -1 -3 -4 -1 -5 -10 0 0 0 0 0 -12 -18 0 0 -3 -31 -112 -154 -253 -209 -224 0 0 -95 -119 0 0 -69 -12 -8 -7 -5 -3 -7 -2
-56 -7 -4 -10 -11 -11 -3 -2 -5 -4 -4 -8 -8 -4 0 0 0 0 0 -5 -16 -32 -79 -153 -257 0 0 0 0 0 0 -57 -203 0 -173 -122 -51 -1 -3 0 -5 -3 0
-32 -21 -10 -18 -20 -16 -7 -6 -7 -2 -4 -13 -7 0 0 0 0 0 0 -2 -30 -43 -35 -67 -179 0 0 0 0 0 0 0 0 -203 -149 -111 -152 -1 0 -7 -16 -1 0
-31 -55 -20 -9 -14 -11 -10 -4 -2 -3 -4 -7 0 0 0 0 0 0 -2 -4 -7 -18 -54 -59 -57 -109 0 0 0 0 0 0 0 0 0 0 -170 -3 0 -2 -10 -7 -8
-71 -199 -143 -49 -47 -8 -9 -12 -10 -11 -7 -2 0 0 0 0 0 0 0 -2 -1 0 -2 -23 -59 -93 0 -101 0 0 0 0 0 0 0 0 -175 -16 -11 0 -8 -8 -14
-186 -97 -284 0 0 -116 -52 -37 -10 -13 -7 -1 -2 -1 -1 -2 0 0 -4 -2 -1 -2 -4 -1 -2 -17 -79 -122 -111 0 0 0 0 0 0 0 0 -90 -6 -6 -1 0 0
-174 -148 -207 -186 -152 -167 -134 -50 -66 -29 -13 -7 -5 -2 -4 -7 -2 -5 -10 -1 -1 -1 -2 -3 -3 -4 -3 -5 -49 -96 -3 0 0 0 0 0 0 -22 0 -6 -11 -10 0
0 0 -140 -50 -98 -87 -100 -42 -76 -18 -43 -31 -25 -13 -18 -32 -103 -153 -80 -36 -15 -7 -4 -6 -2 -3 -18 -18 -8 -10 -56 -14 0 0 0 0 0 -13 0 0 -7 -12 -15
0 0 0 0 0 0 -134 -49 -64 -186 -232 -193 -100 -78 -80 -47 -163 0 -51 -108 -106 -89 -23 -4 -8 -16 -27 -48 -48 -51 -86 -119 -95 0 0 0 0 -7 -13 0 0 0 -6
0 0 0 0 0 0 -2 -227 -38 0 0 -17 -237 -183 -152 -140 -138 -163 -206 -225 0 0 -28 -11 -14 -75 -55 -62 -53 -24 -31 -83 -103 -96 -71 -134 0 -16 0 -5 -25 -26 -17
0 0 0 0 0 0 0 0 0 0 0 0 0 0 0 0 0 0 0 0 0 0 0 0 0 0 -78 0 -142 0 -83 -30 -54 -68 -58 -52 0 -38 -8 -5 0 -1 -1
0 0 0 0 0 0 0 0 0 0 0 0 0 0 0 0 0 0 0 0 0 0 0 0 0 0 0 0 0 0 0 0 0 -96 -50 -109 -114 -9 -35 -9 -2 -5 -3
0 0 0 0 0 0 0 0 0 0 0 0 0 0 0 0 0 0 0 0 0 0 0 0 0 0 0 0 0 0 0 0 0 0 0 -37 -109 0 0 0 -16 -35 -42
0 0 0 0 0 0 0 0 0 0 0 0 0 0 0 0 0 0 0 0 0 0 0 0 0 0 0 0 0 0 0 0 0 0 0 0 0 -3 -38 -32 -26 -42 -5
0 0 0 0 0 0 0 0 0 0 0 0 0 0 0 0 0 0 0 0 0 0 0 0 0 0 0 0 0 0 0 0 0 0 0 0 0 0 0 0 0 0 -32
0 0 0 0 0 0 0 0 0 0 0 0 0 0 0 0 0 0 0 0 0 0 0 0 0 0 0 0 0 0 0 0 0 0 0 0 0 0 0 0 0 0 0
0 0 0 0 0 0 0 0 0 0 0 0 0 0 0 0 0 0 0 0 0 0 0 0 0 0 0 0 0 0 0 0 0 0 0 0 0 0 0 0 0 0 0
0 0 0 0 0 0 0 0 0 0 0 0 0 0 0 0 0 0 0 0 0 0 0 0 0 0 0 0 0 0 0 0 0 0 0 0 0 0 0 0 0 0 0
0 0 0 0 0 0 0 0 0 0 0 0 0 0 0 0 0 0 0 0 0 0 0 0 0 0 0 0 0 0 0 0 0 0 0 0 0 0 0 0 0 0 0
0 0 0 0 0 0 0 0 0 0 0 0 0 0 0 0 0 0 0 0 0 0 0 0 0 0 0 0 0 0 0 0 0 0 0 0 0 0 0 0 0 0 0
0 0 0 0 0 0 0 0 0 0 0 0 0 0 0 0 0 0 0 0 0 0 0 0 0 0 0 0 0 0 0 0 0 0 0 0 0 0 0 0 0 0 0
0 0 0 0 0 0 0 0 0 0 0 0 0 0 0 0 0 0 0 0 0 0 0 0 0 0 0 0 0 0 0 0 0 0 0 0 0 0 0 0 0 0 0
0 0 0 0 0 0 0 0 0 0 0 0 0 0 0 0 0 0 0 0 0 0 0 0 0 0 0 0 0 0 0 0 0 0 -1 0 0 0 0 0 0 0 0
Wind_Speed
10 7 7 7 6 5 4 4 5 6 7 8 8 9 11 12 13 14 15 15 15 16 17 17 18 17 16 16 16 15 15 15 15 14 13 13 14 13 13 12 11 11 13
10 8 8 8 7 5 3 4 4 5 5 6 7 8 9 10 11 13 14 15 16 16 17 17 17 17 17 17 16 16 15 15 14 14 14 13 13 13 13 12 10 10 12
8 9 9 9 8 6 4 4 4 4 4 5 5 6 7 9 10 12 13 14 15 15 17 17 17 17 17 17 17 16 16 15 14 13 13 13 12 13 13 12 10 10 11
8 11 11 9 9 7 6 5 4 4 5 4 4 5 7 8 9 11 12 13 13 14 15 16 16 16 16 17 17 16 16 16 14 13 13 12 12 12 12 11 9 9 10
9 12 11 12 11 9 6 6 6 5 5 5 5 5 7 8 9 10 10 11 12 13 13 14 15 16 16 16 16 17 17 16 15 13 13 13 12 12 12 11 9 9 9
12 13 11 12 12 10 7 7 6 6 5 4 4 6 7 8 9 9 9 10 11 12 12 13 14 15 15 15 15 16 17 16 16 14 13 14 13 12 11 10 9 9 9
12 14 16 15 17 15 11 8 7 6 6 6 6 6 8 9 9 9 9 9 9 11 12 12 13 14 15 15 15 15 16 16 15 14 14 15 15 14 10 10 9 9 9
8 14 13 16 29 19 17 15 13 11 9 7 7 7 8 9 10 10 10 10 10 11 12 12 13 14 15 15 15 15 15 16 16 15 15 15 16 16 10 9 8 8 8
12 11 11 10 19 21 17 16 18 16 13 11 10 9 9 10 10 11 11 11 11 11 12 13 13 14 14 15 15 15 15 15 16 16 15 15 16 17 15 10 8 8 8
14 12 11 12 10 12 20 18 20 20 15 13 12 10 9 11 12 12 13 14 13 13 13 14 14 14 15 16 17 16 15 15 15 16 16 16 17 17 16 15 11 10 10
14 14 13 10 11 12 11 17 19 12 9 11 10 10 10 10 11 12 13 14 15 15 15 15 15 15 15 16 17 18 17 16 16 17 17 18 17 17 17 16 15 14 12
12 13 13 12 11 12 12 9 10 12 13 13 15 12 12 11 11 13 13 14 15 16 16 17 16 16 16 16 18 19 18 17 18 19 19 20 18 17 17 17 17 17 16
11 12 12 12 11 11 11 9 12 14 14 14 14 15 13 12 13 14 14 15 16 16 16 16 17 18 19 18 18 19 19 20 19 19 20 21 21 18 18 17 18 17 17
12 13 13 12 12 11 10 11 13 13 14 14 14 13 13 12 13 14 15 15 15 17 16 17 18 17 20 19 19 21 21 21 21 22 22 23 23 20 20 21 19 19 19
10 12 14 12 11 10 11 12 13 14 14 14 12 12 11 11 12 13 15 15 17 19 19 18 18 17 20 20 20 20 22 23 23 23 22 22 22 21 21 21 20 20 21
7 9 12 13 12 10 10 12 13 13 14 13 13 13 13 13 14 15 16 18 19 20 19 18 17 16 18 19 21 22 22 23 24 24 23 23 22 22 22 23 23 22 24
7 7 8 8 10 10 10 11 11 12 12 13 13 13 13 14 15 15 17 18 18 19 19 19 19 19 19 20 21 21 22 23 23 24 24 24 24 24 24 25 25 26 26
7 7 7 9 9 10 10 11 11 11 11 12 13 14 14 14 14 15 16 17 18 18 18 19 20 20 20 22 22 24 24 25 26 26 25 24 23 23 24 26 27 28 29
7 6 7 7 9 9 10 10 10 11 11 12 13 13 14 14 15 15 16 17 18 19 19 20 20 21 22 24 25 26 27 26 26 26 27 26 25 25 25 26 27 28 28
5 6 7 7 7 8 8 9 10 11 11 12 13 13 14 15 15 16 17 18 19 19 20 20 21 21 22 25 27 27 28 26 24 23 24 25 25 25 25 26 27 28 28
4 4 5 6 6 5 7 8 10 11 11 12 13 14 15 16 16 17 17 18 19 19 20 21 21 22 23 26 26 27 24 22 20 23 23 23 23 23 23 25 28 28 28
4 3 3 4 4 6 8 11 12 10 12 13 14 15 16 16 17 17 18 19 19 19 20 21 22 23 23 25 26 25 25 23 23 23 22 22 23 22 22 24 26 26 26
4 4 3 3 5 8 10 11 11 12 13 15 16 16 16 16 16 17 18 18 19 20 21 22 23 23 25 25 26 23 25 25 28 24 24 24 27 25 23 25 26 27 27
5 5 5 5 6 9 10 12 12 15 16 16 15 16 16 16 17 18 19 20 20 21 22 22 23 24 24 25 24 25 23 25 28 29 24 28 29 29 28 27 28 29 28
5 4 5 6 8 11 13 14 14 15 15 15 16 17 17 18 18 19 20 21 22 22 23 24 24 25 25 26 26 26 27 28 27 30 36 30 31 33 31 29 30 30 30
5 4 5 6 8 10 11 14 14 15 15 16 18 18 19 19 19 20 21 22 23 24 25 26 26 27 27 26 26 26 28 28 30 32 34 36 37 33 31 30 31 31 30
Wind_Direction
333 336 328 334 334 345 358 359 13 37 37 43 46 47 52 50 45 38 31 28 28 29 28 28 28 22 15 12 12 7 5 4 5 1 359 5 17 22 22 19 28 33 46
331 331 326 318 313 323 337 353 2 6 25 39 42 41 43 36 33 33 30 31 37 38 34 31 29 28 24 19 16 10 2 357 357 358 358 360 7 18 23 29 26 38 41
337 324 320 311 302 300 313 319 339 346 350 7 23 26 28 27 26 27 28 31 29 43 34 31 29 27 25 24 18 7 356 346 347 354 356 354 2 15 23 26 25 35 33
329 315 309 308 302 295 298 303 314 323 329 343 349 11 5 10 12 24 29 29 27 27 26 27 23 22 21 21 16 4 353 356 355 9 1 358 353 3 5 13 13 18 28
327 310 306 297 297 292 300 294 292 307 318 327 332 353 355 8 8 19 26 28 26 24 22 19 16 13 11 13 10 3 356 2 5 11 2 358 354 353 357 357 8 16 12
318 309 313 304 295 293 296 286 286 293 301 318 330 336 344 348 357 10 17 23 21 16 12 10 7 6 5 3 4 2 360 2 1 2 359 348 344 351 356 353 353 359 3
331 317 306 308 296 287 287 284 284 286 291 299 317 332 337 340 344 356 3 10 13 13 9 5 359 352 353 356 355 356 354 357 356 354 351 344 340 345 8 4 0 3 358
15 320 321 312 288 283 277 278 274 277 287 301 314 321 331 336 338 344 351 355 356 356 357 354 352 346 341 342 346 348 348 346 345 343 337 335 333 335 5 16 14 3 7
42 20 28 7 309 271 286 285 277 274 279 288 300 317 325 331 337 340 346 349 350 349 347 346 342 339 337 333 332 337 339 340 340 340 340 332 324 327 335 347 350 356 354
61 42 23 19 354 27 272 288 273 276 272 277 295 313 325 329 331 335 334 333 336 338 338 338 337 333 329 327 321 323 330 332 332 334 333 330 325 322 326 333 334 327 327
59 42 34 33 14 29 6 270 226 172 329 306 315 321 324 330 333 332 334 334 332 330 332 334 333 330 328 324 316 314 318 323 323 322 322 319 318 323 323 322 323 324 320
57 59 44 43 25 6 11 2 326 328 318 316 310 317 318 323 325 329 332 328 329 329 328 329 331 329 321 316 313 310 312 314 315 313 310 311 314 318 322 324 321 317 320
41 35 29 25 19 10 6 0 327 318 318 316 317 311 313 319 317 316 326 324 326 329 325 328 329 329 321 311 308 307 308 306 310 311 308 305 306 311 314 320 321 321 318
22 7 1 358 359 7 5 350 335 330 325 324 319 317 316 329 315 315 315 321 324 319 325 331 328 340 322 310 308 305 307 303 303 304 304 300 301 304 305 307 313 317 317
16 360 337 348 352 352 352 350 345 336 334 332 331 328 323 326 337 328 322 323 323 314 319 327 327 337 323 306 305 311 304 301 299 300 304 302 302 303 304 304 310 311 312
20 13 342 337 345 352 349 346 346 341 332 330 331 331 328 324 320 318 318 317 315 311 314 320 330 335 332 315 308 306 307 303 300 300 302 303 303 303 302 302 304 307 307
3 10 357 349 348 349 351 351 349 349 339 333 332 334 333 327 321 320 313 313 313 314 316 315 318 325 328 322 319 321 312 309 308 304 303 301 300 300 301 300 301 302 303
357 357 0 339 342 340 343 349 349 349 350 342 335 333 332 331 329 325 319 316 316 319 319 318 317 319 321 315 315 311 311 307 303 302 303 304 305 305 302 301 301 300 298
346 357 353 348 332 335 339 343 350 351 348 345 341 336 333 332 329 329 326 322 321 322 321 320 319 318 314 312 310 306 307 310 309 307 303 302 303 304 304 304 303 302 301
341 343 344 346 344 338 341 345 341 347 348 344 339 336 331 330 327 326 320 322 325 323 322 320 321 321 318 315 310 310 308 313 318 319 316 309 305 305 306 307 307 305 304
319 333 338 338 338 343 335 326 325 325 331 333 332 331 328 327 327 329 326 324 323 323 323 322 320 320 321 318 319 316 320 323 323 328 330 329 323 314 311 311 311 308 306
280 297 313 320 323 319 321 316 313 317 317 321 324 328 328 329 326 327 329 327 327 326 327 329 330 325 325 329 323 322 317 321 321 321 329 336 334 330 323 319 317 318 312
260 276 284 295 299 301 306 311 313 312 313 312 314 320 325 331 334 334 334 333 327 326 325 326 325 326 324 325 326 328 320 317 319 323 323 325 325 325 326 323 321 319 316
255 291 298 299 302 297 299 300 301 300 301 305 311 316 321 327 329 331 330 330 327 326 324 325 326 326 327 325 323 322 323 318 315 314 325 320 321 319 319 319 318 316 316
261 280 297 303 304 295 293 296 298 301 303 307 310 313 316 321 325 327 328 326 325 325 326 327 325 325 325 324 323 322 319 316 315 309 307 317 317 315 316 317 317 315 314
266 275 289 299 306 303 300 296 297 296 304 304 305 309 312 316 321 323 324 325 324 324 324 323 323 323 321 321 322 322 318 317 314 312 309 308 308 315 315 316 315 314 315